Find Starlink 4386

NORAD ID: 53649 Int'l Des: 2022-105 Owner: SPXS Country: US Constellation: starlink operational
LEOCIRCULARRETROGRADESSO

リアルタイム位置

3D地球を読み込み中...

Starlink 4386について

説明を読み込み中...

次回通過

Passes for default location (London). Set your location on the main map for personalized predictions.

高度履歴

Loading altitude history...

軌道要素

1 53649U 22105B 26126.50003471 .00083849 00000-0 32264-2 0 9995
2 53649 97.6031 8.9768 0001736 83.4294 26.9880 15.26040955 5791
Epoch: May 6, 2026 • Age: 5 hours

現在のステータス

高度 510.3 km
速度 7.61 km/s
衛星直下点 -55.87°S, 54.24°E
打ち上げ日 Aug 31, 2022
運用期間 3.6 years
タイプ internet

技術仕様

分類 Payload
質量 300.00 kg
乾燥質量 290.00 kg
総質量 300.00 kg
長さ 0.20 m
直径 2.80 m
スパン 9.00 m
形状 Box + pan
製造者 SPXS
バスタイプ Starlink
フェーズステータス In Orbit
所有者/国 SPXS/US

Most Searched